Location: Plymouth
(43.7570°N, 71.6890°W)
Time: 20:14:39
(UTC-04:00)

Daily predictions for brighter satellites

Satellite Brightness Start Highest point End
(mag) Time Altitude Azimuth Time Altitude Azimuth Time Altitude Azimuth
ATLAS 3B R/B 4.3 20:45:20 10° SE 20:49:21 15° ESE 20:53:20 10° ENE
APEX 3.7 20:46:49 10° NNW 20:50:43 68° ENE 20:55:48 10° SSE
Cosmos 2228 3.2 20:48:11 10° N 20:52:34 58° E 20:56:54 10° SSE
Cosmos 1743 3.4 20:50:23 10° NNW 20:54:10 55° W 20:57:55 10° S
Lacrosse 5 rocket 2.1 20:52:06 10° WSW 20:55:54 56° NW 20:59:55 10° NE
Cosmos 1025 Rocket 4.0 20:51:59 10° SSW 20:56:17 53° WNW 21:00:35 10° N
Meteor 1-23 Rocket 4.3 20:51:16 10° S 20:56:54 79° E 21:02:38 10° NNE
Cosmos 2251 Rocket 4.1 20:53:01 10° SSW 20:58:18 67° WNW 21:03:39 10° NNE
Cosmos 1892 Rocket 4.1 21:00:02 10° SSW 21:04:26 64° W 21:08:54 10° N
ERS-1 Rocket 3.2 20:59:27 10° S 21:04:28 72° WSW 21:09:30 10° NNW
Cosmos 1603 4.1 21:00:23 10° S 21:05:37 42° ESE 21:10:53 10° NE
USA 234 3.6 20:59:11 10° ESE 21:05:40 64° NNE 21:12:10 10° NW
Envisat 3.1 21:03:19 10° SSE 21:08:20 66° ENE 21:13:24 10° N
Meteor 2-9 Rocket 4.3 21:03:17 10° N 21:08:58 88° W 21:14:47 10° S
USA 186 4.4 21:12:27 10° SW 21:14:15 15° W 21:15:59 10° NW
Abrixas rocket 3.1 21:12:29 10° WNW 21:15:44 39° SSW 21:18:26 14° SSE
Meteor 2-4 Rocket 4.2 21:10:49 10° SSW 21:16:40 72° WNW 21:22:38 10° N
Okean 2 4.0 21:14:44 10° SSW 21:18:53 61° W 21:23:03 10° N
BREEZE M DEB (TANK) 1.1 21:17:36 10° W 21:20:26 81° SSW 21:21:56 16° ESE
UNK 4.4 21:15:35 10° NNE 21:20:51 51° E 21:26:21 10° S
Timation 1 Rocket 4.4 21:18:25 10° NNW 21:24:28 82° WSW 21:30:10 11° SSE
Tsikada Rocket 4.1 21:18:55 10° S 21:25:16 69° E 21:31:37 10° NNE
Cosmos 1943 4.1 21:25:39 10° SSE 21:30:22 29° ESE 21:35:10 10° NE
YAOGAN 6 3.1 21:27:50 16° SE 21:30:33 46° ENE 21:34:09 10° N
PSLV R/B 4.1 21:30:57 10° SW 21:34:10 33° SSE 21:36:28 16° ESE
ISS -2.3 21:31:36 10° SSW 21:34:20 25° SE 21:37:05 10° E
Cosmos 1943 Rocket 4.0 21:33:43 10° N 21:37:40 19° NE 21:41:37 10° E
Cosmos 1461 3.4 21:34:50 10° NW 21:39:04 54° WSW 21:42:09 16° SSE
MetOp-A 4.1 21:35:19 12° SSE 21:40:15 87° ENE 21:45:39 10° NNW
SPOT 5 2.9 21:36:20 10° S 21:40:40 68° WSW 21:45:00 10° NNW
Cosmos 1992 Rocket 4.2 21:39:15 10° NNW 21:44:26 59° ENE 21:48:02 20° SE
Cosmos 1602 Rocket 4.1 21:43:05 10° SSW 21:47:31 60° W 21:51:57 10° N
H-2A R/B 3.0 21:48:11 18° ESE 21:51:05 31° ENE 21:55:30 10° N
SL-08 RB Rocket 4.0 21:49:11 21° SE 21:52:01 51° ENE 21:56:26 10° N
Cosmos 1825 Rocket 3.9 21:49:40 19° SSE 21:52:37 49° E 21:56:54 10° NNE
Cosmos 1812 Rocket 4.0 21:52:28 10° NNW 21:56:48 61° W 22:00:27 14° S
SPOT 1/Viking Rocket 3.5 21:55:42 18° SSE 21:59:35 88° WSW 22:04:47 10° NNW
Geosat 4.3 21:56:01 10° NE 22:00:49 43° ESE 22:04:14 18° S
Terra 2.7 22:00:40 22° ESE 22:03:05 35° ENE 22:07:24 10° N
Cosmos 1190 Rocket 4.3 22:00:19 19° S 22:03:55 47° ESE 22:09:01 10° NNE
Cosmos 1634 Rocket 4.0 21:58:26 10° N 22:04:37 75° E 22:08:55 21° SSE
USA 245 4.4 22:05:43 17° S 22:10:31 72° WSW 22:15:45 10° NNW
SeaSat 1 3.6 22:07:21 14° S 22:11:06 36° WSW 22:15:40 10° NW
Atlas Centaur 2 3.8 22:05:20 10° SW 22:12:02 30° S 22:15:35 23° SE
Cosmos 2369 Rocket 2.2 22:07:36 10° NNW 22:13:18 77° ENE 22:16:29 27° SSE
ARGOS 3.2 22:10:34 22° S 22:14:12 83° WSW 22:19:41 10° NNW
DEBRIS 4.3 22:12:37 10° W 22:14:52 15° WSW 22:15:34 14° SW
CZ-4C R/B 3.4 22:12:55 30° SSE 22:14:59 78° ENE 22:19:06 10° N
CZ-4B R/B 3.9 22:11:44 10° N 22:16:44 64° WNW 22:21:51 10° SSW
NOAA 11 4.3 22:22:44 24° S 22:26:06 72° WSW 22:31:33 10° NNW
COSMOS 2455 3.1 22:22:37 10° SW 22:28:37 69° WNW 22:34:38 10° NNE
Cosmos 2279 Rocket 4.0 22:22:59 10° N 22:29:14 69° E 22:32:31 29° SSE
Cosmos 1805 4.5 22:28:40 10° NNE 22:32:06 28° ENE 22:32:42 26° E
Cosmos 1953 3.1 22:29:57 10° N 22:33:38 35° ENE 22:34:19 33° E
Lacrosse 5 rocket 4.4 22:33:16 10° WNW 22:35:59 17° NNW 22:38:48 10° NNE
Meteor 1-22 Rocket 4.3 22:31:22 10° NNW 22:36:55 77° W 22:40:02 28° S
Cosmos 2263 4.1 22:31:20 10° NNW 22:36:59 86° ENE 22:39:31 34° SSE
Cosmos 1953 Rocket 3.7 22:35:33 26° SSW 22:37:57 73° W 22:42:24 10° N
ATLAS 3B R/B 2.9 22:31:17 10° SSW 22:38:57 73° ESE 22:46:28 10° NE
COSMOS 2406 4.2 22:39:06 27° ESE 22:39:43 27° ESE 22:44:28 10° NE
IGS 5A 3.4 22:43:55 48° SSE 22:45:01 82° ENE 22:49:12 10° N
Cosmos 2180 Rocket 4.5 22:40:47 10° N 22:47:04 79° E 22:50:02 34° SSE
USA 234 3.9 22:45:49 27° S 22:48:51 42° SW 22:55:02 10° WNW
Cosmos 407 Rocket 3.5 22:49:25 23° SSW 22:52:47 82° WNW 22:58:03 10° NNE
SL-27 R/B 3.6 22:55:23 30° ENE 22:55:23 30° ENE 22:57:33 10° NE
Cosmos-2242 3.0 22:52:58 10° N 22:57:23 84° E 22:58:21 54° SSE
Cosmos 1346 Rocket 3.8 22:55:59 24° SW 22:57:52 42° WNW 23:01:38 10° N
Lacrosse 4 Rocket 1.4 22:59:11 36° SW 23:00:45 75° WNW 23:04:52 10° NNE
Cosmos 2208 Rocket 4.4 22:59:00 10° N 23:04:03 50° ENE 23:05:35 38° ESE
BREEZE-M DEB (TANK) 3.9 23:08:32 10° W 23:14:11 - ENE 23:09:51 23° WNW
ISS -2.4 23:07:27 10° WSW 23:10:37 48° NNW 23:13:48 10° NE
Cosmos 1954 Rocket 3.9 23:09:47 40° SSW 23:11:47 86° ESE 23:17:07 10° NNE
USA 238 DEB 3.9 23:10:59 36° S 23:13:38 54° ESE 23:20:29 10° NE
USA 238 3.9 23:11:09 36° S 23:13:44 54° ESE 23:20:34 10° NE
Cosmos 1943 4.2 23:08:46 10° SW 23:14:10 45° WNW 23:19:39 10° NNE
Cosmos 1842 3.7 23:13:32 48° SW 23:14:17 58° W 23:18:11 10° N
CZ-4B R/B 3.7 23:17:06 17° ENE 23:17:14 17° ENE 23:19:40 10° NNE
Cosmos 1544 3.7 23:14:02 10° N 23:17:29 47° ENE 23:17:29 47° ENE
Cosmos 1758 3.4 23:14:31 10° NNW 23:18:38 71° W 23:19:02 65° SW
Cosmos 1943 Rocket 2.1 23:16:29 10° NNW 23:22:02 76° WSW 23:23:31 50° S
Spot 4 4.4 23:22:16 38° SW 23:23:30 47° W 23:28:08 10° NNW
ALOS 2 3.9 23:25:26 27° E 23:26:06 28° ENE 23:29:50 10° N
SL-8 R/B 4.1 23:23:13 10° WNW 23:28:01 60° NNE 23:30:33 27° E
Cosmos 1741 Rocket 4.0 23:27:51 54° SE 23:28:35 60° ESE 23:33:50 10° NNE
Meteor 2-5 Rocket 4.1 23:28:42 43° SE 23:29:52 49° E 23:35:26 10° NNE
H-2A R/B 3.2 23:28:49 26° SW 23:30:27 33° W 23:34:59 10° NNW
Cosmos 1092 Rocket 3.9 23:33:02 46° S 23:35:05 79° E 23:41:24 10° N
Lacrosse 5 4.4 23:35:29 10° NW 23:39:09 19° N 23:42:48 10° ENE
Cosmos 1656 Rocket 3.7 23:33:33 10° NNW 23:39:17 74° ENE 23:40:41 51° SE
Terra 3.3 23:39:33 23° WSW 23:40:52 26° W 23:44:52 10° NW
Cosmos 1842 Rocket 3.6 23:36:54 10° NNW 23:41:15 64° W 23:41:34 62° WSW
Cosmos 1570 Rocket 4.0 23:37:14 10° NNW 23:42:35 72° WSW 23:43:34 57° SSW
Cosmos 1733 3.6 23:41:58 10° N 23:45:24 56° NE 23:45:24 56° NE
Cosmos 1850 Rocket 3.9 23:46:11 59° SSW 23:47:12 89° ESE 23:52:28 10° NNE
Nadezhda 4 Rocket 4.3 23:45:01 35° SSW 23:47:41 64° W 23:53:59 10° N
NOSS 3-2 (C) 4.4 23:48:25 29° ESE 23:48:25 29° ESE 23:53:46 10° NE
CZ-2C R/B 4.4 23:49:03 10° NE 23:52:48 18° E 23:53:13 18° E
CZ-4C R/B 3.1 23:54:52 32° ESE 23:54:52 32° ESE 23:59:27 10° NE
Cosmos 2369 Rocket 4.2 23:53:23 10° WNW 23:56:35 15° W 23:58:16 14° WSW
